Regional Weather Roundup
Issued by NWS Charleston, SC

Current Version | Previous Version | Graphics & Text | Print | Product List | Glossary On
Versions: 1 2 3 4 5 6 7 8 9 10 11 12 13 14 15 16 17 18 19 20 21 22 23 24 25 26 27 28 29 30 31 32 33 34 35 36 37 38 39 40 41 42 43 44 45 46 47 48 49 50
335
ASUS42 KCHS 300728
RWRCHS

REGIONAL WEATHER ROUNDUP
NATIONAL WEATHER SERVICE CHARLESTON SC
300 AM EDT SAT APR 30 2016

NOTE: "FAIR" INDICATES FEW OR NO CLOUDS BELOW 12,000 FEET WITH NO
SIGNIFICANT WEATHER AND/OR OBSTRUCTIONS TO VISIBILITY.

NOT ALL STATIONS ARE QUALITY CONTROLLED. USE DATA WITH CAUTION...
ESPECIALLY DEWPOINT OBSERVATIONS.

SCZ027-030-031-034>040-042>050-300800-
...SOUTHEAST SOUTH CAROLINA...

CITY           SKY/WX    TMP DP  RH WIND       PRES   REMARKS
N CHARLESTON   CLEAR     68  66  93 CALM      29.98S
WATERFRONT PRK   N/A     71  70  96 VRB3      29.96F
MOUNT PLEASANT FAIR      66  64  94 CALM      29.98S FOG
JOHNS ISLAND   FAIR      68  68 100 CALM      29.98S FOG
PINOPOLIS        N/A     70  68  94 CALM      29.90F
MONCKS CORNER  RAIN      64  63  94 CALM      29.98S VSB 1/4
SUMMERVILLE    FOG       70  70 100 CALM      29.99S VSB 3/4
BEAUFORT MCAS  PTCLDY    73  71  93 SE3       29.97S FOG
BEAUFORT ARPT    N/A     70  70 100 CALM      29.96F FOG
HILTON HEAD IS CLOUDY    72  72 100 CALM      29.98S FOG
WALTERBORO     FOG       70  70 100 E3        29.98F VSB 1/4
ALLENDALE      FOG       70  68  94 SE5       29.95F VSB 1/4

...SOUTHERN MIDLANDS AND PEE DEE...

CITY           SKY/WX    TMP DP  RH WIND       PRES   REMARKS
GEORGETOWN     FOG       63  61  94 CALM      30.00S VSB 1/2
KINGSTREE      FOG       66  64  94 SE6       29.99S VSB 1/2
ORANGEBURG     FOG       65  64  97 S3        29.98F VSB 3/4
BARNWELL       FOG       70  70 100 CALM      29.97S VSB 3/4
AIKEN          FAIR      63  57  82 CALM      30.00S
MANNING        NOT AVBL
COLUMBIA       PTCLDY    69  61  75 S5        29.97S
SUMTER         PTCLDY    66  64  94 S5        29.96S
FLORENCE       CLOUDY    68  66  93 S6        29.99F
MYRTLE BEACH   CLEAR     70  61  73 S6        30.01S
N MYRTLE BEACH CLEAR     68  65  90 S3        29.99F

$$

GAZ063-065-086>088-099>101-113>116-118-119-134>141-150-300800-
...SOUTHEAST GEORGIA...

CITY           SKY/WX    TMP DP  RH WIND       PRES   REMARKS
SAVANNAH ARPT  PTCLDY    69  66  90 CALM      29.97S FOG
HUNTER AAF     CLEAR     68  68 100 S2        29.94S FOG
FORT STEWART   FOG       66  64  94 CALM      29.94F VSB 1/2
STATESBORO     CLEAR     67  66  96 CALM      29.95F
SYLVANIA       SUNNY     66  66  99 CALM      29.96F FOG
CLAXTON        FAIR      63  63  99 CALM      29.96F

...CSRA...CENTRAL AND FAR SOUTHEAST GEORGIA...

CITY           SKY/WX    TMP DP  RH WIND       PRES   REMARKS
THOMSON        PTCLDY    64  64  99 CALM      29.99F
AUGUSTA-BUSH   CLEAR     64  62  93 CALM      29.95F
AUGUSTA-DANIEL CLEAR     70  61  73 SE6       29.97F
SWAINSBORO     FAIR      66  63  88 SE5       29.96F
VIDALIA        CLEAR     66  63  88 CALM      29.95F
EASTMAN          N/A    N/A N/A N/A CALM      29.96F FOG
HAZLEHURST     FAIR      71  67  87 S6        29.93F
ALMA           CLEAR     66  65  96 CALM      29.95F
WAYCROSS       CLEAR     68  68 100 CALM      29.94F
JESUP          FAIR      66  64  94 CALM      29.96F
BAXLEY         FAIR      68  66  94 CALM      29.94F
BRUNSWICK      MOCLDY    73  72  94 S3        29.96F FOG
SAINT SIMONS   MOCLDY    72  72 100 S6        29.95F FOG

$$

SCZ027-028-034-036>038-045-046-048>050-GAZ119-141-300800-
...LAKE AND SUPPLEMENTAL COASTAL OBSERVATIONS...

STATION/POSITION TIME  TEMP    WIND        PRES    WAVE   SWELL
                       AIR SEA DIR/SP/G            HT/PER HT/PER/DIR
                 (UTC) (F)     (DEG/KT/KT) (MB)    (FT/S) (FT/S/D)
WINYAH BAY       0600   70     120/  4     1015.0
LAKE MURRAY      0600   73     160/  6/  8 1014.6S
ACE BASIN NERRS  0600   70        CALM     1015.0S
FORT PULASKI     0700   71 72   CALM  /  1 1015.1F
SAPELO ISLAND    0600   73     160/  5     1014.0F

$$

ANZ835-935-AMZ111-154-330-350-352-354-370-450-454-472-300800-
...C-MAN AND BUOY OBSERVATIONS...

STATION/POSITION TIME  TEMP    WIND        PRES    WAVE   SWELL
                       AIR SEA DIR/SP/G            HT/PER HT/PER/DIR
                 (UTC) (F)     (DEG/KT/KT) (MB)    (FT/S) (FT/S/D)
BUOY 41004       0650   74 73  130/  6/  8 1014.5F   2/ 9   2/ 9
BUOY 41008       NOT AVBL
FOLLY BEACH CMAN 0700   71     100/  2/  2 1015.4F
CAPERS NEARSHORE 0608   70 70  110/  2/  4 1015.1S
FRIPP NEARSHORE  0708   72 71  170/  4/  6 1014.0F


STATION/POSITION TIME  TEMP    WIND        PRES    WAVE   SWELL
                       AIR SEA DIR/SP/G            HT/PER HT/PER/DIR
                 (UTC) (F)     (DEG/KT/KT) (MB)    (FT/S) (FT/S/D)
5E ST. MARYS GA  0621      73                N/A     1/10
FRYING PAN BUOY  0700   70 70  120/  4/  6 1015.0F
BUOY 41025       0650   60 74   30/ 12/ 14 1016.4F   4/ 8   3/ 50/ 8
CAPE LOOKOUT NC  0700   64      50/ 12/ 14 1016.2R
BUOY 41002       0650   71 71   40/ 10/ 12 1015.1R   3/ 6   2/260/ 6
BUOY 41010       0620   76 77  180/  4/  4 1014.7F
ST AUGUSTINE FL  0700   72 70  220/  3/  3 1015.1S


$$




USA.gov is the U.S. government's official web portal to all federal, state and local government web resources and services.